Oakes, ND

8:53 AM CST on January 23, 2017 (GMT -0600)
Oakes

Weather History for K2D5 - February, 2013

Change the Weather History Date:

Sunday, February 10, 2013

  Actual Average (KP67) Record (KP67)
Temperature  
Mean Temperature 26 °F -  
Max Temperature 28 °F 22 °F 34 °F (1998)
Min Temperature 23 °F 6 °F -4 °F (1997)
Degree Days  
Heating Degree Days 40    
Moisture  
Dew Point 26 °F    
Average Humidity 100    
Maximum Humidity 100    
Minimum Humidity 100    
Precipitation  
Precipitation 14.08 in - - ()
Sea Level Pressure  
Sea Level Pressure 29.62 in    
Wind  
Wind Speed 19 mph (North)    
Max Wind Speed 33 mph    
Max Gust Speed 40 mph    
Visibility 1 miles    
Events Snow    
Averages and records for this station are not official NWS values.
T = Trace of Precipitation, MM = Missing Value Source: NWS Daily Summary

Daily Weather History Graph

Daily Weather History Graph

Search for Another Location

Airport or City:

Trip Planner

Search our weather history database for the weather conditions in past years. The results will help you decide how hot, cold, wet, or windy it might be!

Date:

Astronomy

Feb. 10, 2013 Rise Set
Actual Time 7:42 AM CST 5:51 PM CST
Civil Twilight 7:11 AM CST 6:22 PM CST
Nautical Twilight 6:35 AM CST 6:57 PM CST
Astronomical Twilight 6:01 AM CST 7:32 PM CST
Moon 7:28 AM CST (2/10) 6:49 PM CST (2/10)
Length of Visible Light 11h 11m
Length of Day
10h 08m
New Moon, 0% of the Moon is Illuminated
Feb 10
New Moon
Feb 17
First Quarter
Feb 25
Full
Mar 4
Last Quarter
Mar 11
New

Hourly Weather History & Observations

Time (CST) Temp. Windchill Dew Point Humidity Pressure Visibility Wind Dir Wind Speed Gust Speed Precip Events Conditions
12:15 AM 28.4 °F 18.5 °F 28.4 °F 100% 29.76 in 1.0 mi NE 11.5 mph - 0.08 in Snow Light Snow
12:35 AM 28.4 °F 17.5 °F 28.4 °F 100% 29.74 in 0.8 mi NE 13.8 mph - 0.26 in Snow Light Snow
12:55 AM 28.4 °F 18.5 °F 28.4 °F 100% 29.74 in 0.8 mi NE 11.5 mph - 0.49 in Snow Light Snow
1:15 AM 28.4 °F 18.0 °F 28.4 °F 100% 29.73 in 0.5 mi NE 12.7 mph - 0.26 in Snow Snow
1:35 AM 28.4 °F 18.0 °F 28.4 °F 100% 29.73 in 0.8 mi NE 12.7 mph - 0.61 in Snow Light Snow
1:55 AM 28.4 °F 17.5 °F 28.4 °F 100% 29.72 in 1.0 mi NE 13.8 mph - 0.80 in Snow Light Snow
2:15 AM 28.4 °F 17.0 °F 28.4 °F 100% 29.71 in 1.5 mi NE 15.0 mph - 0.04 in Snow Light Snow
2:35 AM 28.4 °F 16.6 °F 28.4 °F 100% 29.71 in 1.8 mi NE 16.1 mph - 0.08 in Snow Light Snow
2:55 AM 28.4 °F 16.6 °F 28.4 °F 100% 29.70 in 2.0 mi NE 16.1 mph - 0.13 in Snow Light Snow
3:15 AM 28.4 °F 17.0 °F 28.4 °F 100% 29.69 in 2.5 mi NE 15.0 mph - 0.01 in Snow Light Snow
3:55 AM 28.4 °F 15.8 °F 28.4 °F 100% 29.66 in 1.8 mi NE 18.4 mph - 0.09 in Snow Light Snow
4:15 AM 28.4 °F 16.2 °F 28.4 °F 100% 29.66 in 1.5 mi NE 17.3 mph - 0.07 in Snow Light Snow
4:35 AM 28.4 °F 16.2 °F 28.4 °F 100% 29.65 in 2.0 mi NE 17.3 mph - 0.14 in Snow Light Snow
4:55 AM 28.4 °F 16.2 °F 28.4 °F 100% 29.65 in 2.0 mi NE 17.3 mph - 0.21 in Snow Light Snow
5:15 AM 28.4 °F 17.0 °F 28.4 °F 100% 29.66 in 3.0 mi NE 15.0 mph - 0.04 in Snow Light Snow
5:35 AM 28.4 °F 17.0 °F 28.4 °F 100% 29.65 in 1.2 mi NE 15.0 mph - 0.25 in Snow Light Snow
5:55 AM 28.4 °F 16.2 °F 28.4 °F 100% 29.65 in 0.8 mi NE 17.3 mph - 0.55 in Snow Light Snow
6:15 AM 28.4 °F 17.5 °F 28.4 °F 100% 29.64 in 0.8 mi NNE 13.8 mph - 0.21 in Snow Light Snow
6:35 AM 28.4 °F 17.0 °F 28.4 °F 100% 29.64 in 1.0 mi NNE 15.0 mph - 0.43 in Snow Light Snow
6:55 AM 28.4 °F 16.6 °F 28.4 °F 100% 29.63 in 0.8 mi NNE 16.1 mph - 0.81 in Snow Light Snow
7:15 AM 28.4 °F 18.0 °F 28.4 °F 100% 29.62 in 0.8 mi NNE 12.7 mph - 0.46 in Snow Light Snow
7:35 AM 26.6 °F 13.4 °F 26.6 °F 100% 29.61 in 0.8 mi NNE 18.4 mph - 0.65 in Snow Light Snow
7:55 AM 26.6 °F 13.8 °F 26.6 °F 100% 29.61 in 1.5 mi NNE 17.3 mph - 0.81 in Snow Light Snow
8:15 AM 26.6 °F 13.8 °F 26.6 °F 100% 29.62 in 0.8 mi NNE 17.3 mph - 0.12 in Snow Light Snow
8:35 AM 26.6 °F 13.1 °F 26.6 °F 100% 29.61 in 0.5 mi NNE 19.6 mph - 0.37 in Snow Snow
8:55 AM 26.6 °F 13.4 °F 26.6 °F 100% 29.60 in 0.5 mi NNE 18.4 mph 24.2 mph 0.75 in Snow Snow
9:15 AM 26.6 °F 13.1 °F 26.6 °F 100% 29.60 in 0.5 mi NNE 19.6 mph - 0.26 in Snow Snow
9:35 AM 26.6 °F 12.7 °F 26.6 °F 100% 29.60 in 0.5 mi NNE 20.7 mph 26.5 mph 0.32 in Snow Snow
9:55 AM 26.6 °F 12.0 °F 26.6 °F 100% 29.57 in 0.5 mi North 23.0 mph 32.2 mph 0.32 in Snow Snow
10:15 AM 26.6 °F 11.7 °F 26.6 °F 100% 29.57 in 0.2 mi NNE 24.2 mph - N/A Snow Heavy Snow
10:35 AM 26.6 °F 11.7 °F 26.6 °F 100% 29.56 in 0.2 mi NNE 24.2 mph 29.9 mph N/A Snow Heavy Snow
10:55 AM 26.6 °F 11.7 °F 26.6 °F 100% 29.57 in 0.5 mi NNE 24.2 mph 31.1 mph N/A Snow Snow
11:15 AM 26.6 °F 12.0 °F 26.6 °F 100% 29.55 in 0.8 mi North 23.0 mph 29.9 mph N/A Snow Light Snow
11:35 AM 26.6 °F 11.7 °F 26.6 °F 100% 29.55 in 0.2 mi North 24.2 mph - 0.17 in Snow Heavy Snow
11:55 AM 26.6 °F 11.4 °F 26.6 °F 100% 29.54 in 0.2 mi North 25.3 mph - 0.50 in Snow Heavy Snow
12:15 PM 26.6 °F 11.7 °F 26.6 °F 100% 29.53 in 0.2 mi North 24.2 mph - 0.17 in Snow Heavy Snow
12:35 PM 26.6 °F 11.4 °F 26.6 °F 100% 29.51 in 0.2 mi North 25.3 mph 31.1 mph 0.43 in Snow Heavy Snow
12:55 PM 26.6 °F 12.0 °F 26.6 °F 100% 29.51 in 0.2 mi North 23.0 mph - 0.79 in Snow Heavy Snow
1:15 PM 26.6 °F 12.0 °F 26.6 °F 100% 29.51 in 0.2 mi North 23.0 mph - 0.29 in Snow Heavy Snow
1:35 PM 26.6 °F 11.4 °F 26.6 °F 100% 29.51 in 0.2 mi North 25.3 mph 28.8 mph 0.61 in Snow Heavy Snow
1:55 PM 26.6 °F 11.7 °F 26.6 °F 100% 29.50 in 0.2 mi North 24.2 mph 29.9 mph 0.88 in Snow Heavy Snow
2:15 PM 26.6 °F 11.1 °F 26.6 °F 100% 29.50 in 0.2 mi North 26.5 mph - 0.31 in Snow Heavy Snow
2:35 PM 26.6 °F 11.7 °F 26.6 °F 100% 29.51 in 0.2 mi North 24.2 mph - 0.77 in Snow Heavy Snow
2:55 PM 26.6 °F 12.0 °F 26.6 °F 100% 29.50 in 0.2 mi North 23.0 mph 31.1 mph 1.19 in Snow Heavy Snow
3:15 PM 26.6 °F 11.7 °F 26.6 °F 100% 29.51 in 0.2 mi North 24.2 mph - 0.37 in Snow Heavy Snow
3:35 PM 26.6 °F 11.1 °F 26.6 °F 100% 29.52 in 0.2 mi North 26.5 mph 31.1 mph 0.76 in Snow Heavy Snow
3:55 PM 26.6 °F 11.4 °F 26.6 °F 100% 29.53 in 0.2 mi North 25.3 mph 32.2 mph 1.20 in Snow Heavy Snow
4:15 PM 26.6 °F 11.4 °F 26.6 °F 100% 29.53 in 0.2 mi North 25.3 mph 32.2 mph 0.29 in Snow Heavy Snow
4:35 PM 26.6 °F 10.6 °F 26.6 °F 100% 29.54 in 0.2 mi North 28.8 mph 34.5 mph 0.65 in Snow Heavy Snow
4:55 PM 26.6 °F 11.4 °F 26.6 °F 100% 29.54 in 0.2 mi NNW 25.3 mph 34.5 mph 0.97 in Snow Heavy Snow
5:15 PM 26.6 °F 10.3 °F 26.6 °F 100% 29.54 in 0.2 mi NNW 29.9 mph 35.7 mph 0.15 in Snow Heavy Snow
5:35 PM 26.6 °F 10.3 °F 26.6 °F 100% 29.55 in 0.2 mi NNW 29.9 mph 36.8 mph 0.39 in Snow Heavy Snow
5:55 PM 26.6 °F 10.0 °F 26.6 °F 100% 29.56 in 0.5 mi NNW 31.1 mph 36.8 mph 0.63 in Snow Snow
6:15 PM 24.8 °F 7.3 °F 24.8 °F 100% 29.58 in 0.2 mi North 32.2 mph 40.3 mph 0.23 in Snow Heavy Snow
6:35 PM 24.8 °F 7.9 °F 24.8 °F 100% 29.59 in 0.5 mi NNW 29.9 mph 35.7 mph 0.61 in Snow Snow
6:55 PM 24.8 °F 8.1 °F 24.8 °F 100% 29.60 in 0.8 mi NNW 28.8 mph 34.5 mph 0.94 in Snow Light Snow
7:15 PM 24.8 °F 7.1 °F 24.8 °F 100% 29.60 in 0.8 mi NNW 33.4 mph 38.0 mph 0.19 in Snow Light Snow
7:35 PM 24.8 °F 7.6 °F 24.8 °F 100% 29.61 in 0.8 mi NNW 31.1 mph 35.7 mph 0.45 in Snow Light Snow
7:55 PM 24.8 °F 7.1 °F 24.8 °F 100% 29.62 in 0.8 mi NNW 33.4 mph 39.1 mph 0.75 in Snow Light Snow
8:15 PM 24.8 °F 7.1 °F 24.8 °F 100% 29.63 in 0.8 mi NNW 33.4 mph 40.3 mph 0.22 in Snow Light Snow
8:35 PM 24.8 °F 7.6 °F 24.8 °F 100% 29.64 in 0.8 mi NNW 31.1 mph 36.8 mph 0.49 in Snow Light Snow
8:55 PM 24.8 °F 7.9 °F 24.8 °F 100% 29.65 in 0.8 mi NNW 29.9 mph 38.0 mph 0.72 in Snow Light Snow
9:15 PM 24.8 °F 7.9 °F 24.8 °F 100% 29.66 in 0.8 mi NNW 29.9 mph 40.3 mph 0.18 in Snow Light Snow
9:35 PM 24.8 °F 7.3 °F 24.8 °F 100% 29.67 in 1.0 mi NNW 32.2 mph 36.8 mph 0.46 in Snow Light Snow
9:55 PM 23.0 °F 5.7 °F 23.0 °F 100% 29.68 in 1.0 mi NNW 28.8 mph 35.7 mph 0.55 in Snow Light Snow
10:15 PM 23.0 °F 6.0 °F 23.0 °F 100% 29.69 in 1.0 mi NNW 27.6 mph 32.2 mph N/A Snow Light Snow
10:35 PM 23.0 °F 5.4 °F 23.0 °F 100% 29.70 in 1.0 mi NNW 29.9 mph - N/A   Mist
10:55 PM 23.0 °F 6.0 °F 23.0 °F 100% 29.72 in 1.0 mi NW 27.6 mph 31.1 mph N/A   Mist
11:15 PM 23.0 °F 6.3 °F 23.0 °F 100% 29.72 in 1.0 mi NW 26.5 mph 32.2 mph N/A   Overcast
11:35 PM 23.0 °F 6.0 °F 23.0 °F 100% 29.73 in 1.0 mi NW 27.6 mph 33.4 mph N/A   Mist
11:55 PM 23.0 °F 5.1 °F 23.0 °F 100% 29.73 in 1.0 mi NNW 31.1 mph 40.3 mph N/A   Mist